User: anonymous   Login
Location: Unspecified
(0.0000°N, 0.0000°E)
Time: 20:04:27
(UTC+00:00)
Language:

Aussat K1 - Orbit

View from above orbital plane
View from above orbital plane
View from above satellite
View from above satellite

Ground track
Ground track

The orbit data is extracted from the following two-line orbital elements,

1 15993U 85076B   17262.38832083  .00000014  00000-0  00000+0 0  9990
2 15993  15.3235   6.2666 0006106 270.4940 101.8989  0.99757095 87735
Epoch (UTC): 19 September 2017 09:19:10
Eccentricity: 0.0006106
inclination: 15.3235°
perigee height: 35905 km
apogee height: 35957 km
right ascension of ascending node: 6.2666°
argument of perigee: 270.4940°
revolutions per day: 0.99757095
mean anomaly at epoch: 101.8989°
orbit number at epoch: 8773

The dashed part of the orbit path shows where the satellite is in the earth's shadow,  

DLR